Overview Statistics Trail Chart Weather Telemetry Raw packets
 

This is the latest recevied weather packets stored in our database for station/object K0SNA. If no packets are shown the sender has not sent any weather packets the latest 10 day(s).

<< 5 6 7 8 9 10 11 >>
Time Temp. Humidity Pressure Rain* Wind** Luminosity Snow
1788529614 25.56° C 86% 1011.4 hPa 0 mm - 109 W/m² -
1788529312 25.56° C 87% 1011.4 hPa 0 mm - 60 W/m² -
1788529008 25° C 89% 1011.6 hPa 0 mm - 38 W/m² -
1788528704 24.44° C 91% 1011.3 hPa 0 mm - 34 W/m² -
1788528403 24.44° C 93% 1011.4 hPa 0 mm - 33 W/m² -
1788528098 24.44° C 94% 1011.2 hPa 0 mm - 32 W/m² -
1788527797 23.89° C 95% 1011 hPa 0 mm - 30 W/m² -
1788527493 23.33° C 96% 1011 hPa 0 mm - 28 W/m² -
1788527193 23.33° C 97% 1011 hPa 0 mm - 27 W/m² -
1788526887 23.33° C 97% 1011.1 hPa 0 mm - 26 W/m² -
1788526584 23.33° C 97% 1010.9 hPa 0 mm - 25 W/m² -
1788526279 22.78° C 97% 1010.9 hPa 0 mm - 24 W/m² -
1788525974 22.78° C 97% 1010.8 hPa 0 mm - 22 W/m² -
1788525669 22.22° C 97% 1010.9 hPa 0 mm - 22 W/m² -
1788525364 21.67° C 97% 1010.9 hPa 0 mm - 20 W/m² -
1788525060 21.67° C 97% 1010.7 hPa 0 mm - 19 W/m² -
1788524760 21.67° C 97% 1010.6 hPa 0 mm - 17 W/m² -
1788524455 21.67° C 97% 1010.6 hPa 0 mm - 16 W/m² -
1788524150 21.67° C 97% 1010.7 hPa 0 mm - 14 W/m² -
1788523846 21.67° C 97% 1010.3 hPa 0 mm - 13 W/m² -
1788523542 21.67° C 97% 1010.5 hPa 0 mm - 11 W/m² -
1788523237 21.67° C 97% 1010.6 hPa 0 mm - 9 W/m² -
1788522932 21.67° C 97% 1010.4 hPa 0 mm - 7 W/m² -
1788522627 21.67° C 97% 1010.5 hPa 0 mm - 5 W/m² -
1788522322 21.67° C 97% 1010.2 hPa 0 mm - 4 W/m² -

* Rain latest hour (hover to see other rain measurements)
** Current wind speed in m/s (hover to see current wind gust speed)